Probability
0 1 3 3 4 6 6 6 5 3 1 0 1 2 2 1 2 2 3 4 4 2 1 0 0 0 0 0 0 0 0 0 0 0 0 0 0 0 0 0 0 0 0
1 2 3 3 4 5 6 6 5 3 1 0 1 2 2 1 1 1 2 3 3 3 2 1 0 0 0 0 0 0 0 0 0 0 0 0 0 0 0 0 0 0 0
1 2 3 3 3 4 5 4 4 3 2 1 1 1 2 2 1 0 1 2 3 3 2 1 0 0 0 0 0 0 0 0 0 0 0 0 0 0 0 0 0 0 0
1 2 3 3 3 3 4 3 3 3 3 2 2 2 2 1 1 1 1 2 2 2 1 1 0 0 0 0 0 0 0 0 0 0 0 0 0 0 0 0 0 0 0
1 2 3 3 3 3 3 3 3 3 4 4 4 3 2 1 1 1 2 1 1 1 0 0 0 0 0 0 0 0 0 0 0 0 0 0 0 0 0 0 0 0 0
1 1 2 3 3 3 4 3 3 4 5 5 5 5 3 1 0 1 1 1 0 0 0 0 0 0 0 0 0 0 0 0 0 0 0 0 0 0 0 0 0 0 0
2 2 2 3 3 4 4 4 3 4 6 5 4 3 2 1 0 0 0 0 0 0 0 0 0 0 0 0 0 0 0 0 0 0 0 0 0 0 0 0 0 0 0
4 3 2 2 3 3 3 3 3 4 5 4 2 1 1 0 0 0 0 0 0 0 0 0 0 0 0 0 0 0 0 0 0 0 0 0 0 0 0 0 0 0 0
5 5 3 1 1 2 1 1 1 3 3 2 1 0 0 0 0 0 0 0 0 0 0 0 0 0 0 0 0 0 0 0 0 0 0 0 0 0 0 0 0 0 0
7 6 4 1 1 1 1 0 0 1 1 1 1 0 0 0 0 0 0 0 0 1 0 0 0 0 0 0 0 0 0 0 0 0 0 0 0 0 0 0 0 0 0
8 8 6 3 1 0 0 0 0 0 0 0 0 0 0 0 0 0 0 0 0 0 0 0 0 0 0 0 0 0 0 0 0 0 0 0 0 0 0 1 1 0 0
6 7 7 5 2 0 0 0 0 0 0 0 0 0 0 0 0 0 0 0 0 0 0 0 0 0 0 0 0 0 0 0 0 0 0 0 0 0 1 2 2 1 1
3 4 5 5 3 1 0 0 0 0 0 0 0 0 0 0 0 0 0 0 0 0 0 0 0 0 0 0 0 0 0 0 0 0 0 0 0 0 1 2 3 3 2
2 2 4 5 3 1 0 0 0 0 0 0 0 0 0 0 0 0 0 0 0 0 0 0 0 0 0 0 0 0 0 0 0 0 0 0 0 1 1 3 3 3 3
3 3 3 4 3 1 0 0 0 0 0 0 0 0 0 0 0 0 0 0 0 0 0 0 0 0 0 0 0 0 0 0 0 0 0 0 0 1 3 4 4 4 4
3 3 3 3 2 1 0 0 1 0 0 0 0 0 0 0 0 0 0 0 0 0 0 0 0 0 0 0 0 0 0 0 0 0 0 0 0 1 3 4 5 5 5
3 3 3 3 3 1 1 0 0 0 0 0 0 0 0 0 0 0 0 0 0 0 0 0 0 0 0 0 0 0 0 0 0 0 0 0 0 0 1 3 4 4 5
3 3 3 3 3 3 2 1 0 0 0 0 0 0 0 0 0 0 0 0 0 0 0 0 0 0 0 0 0 0 0 0 0 0 0 0 0 0 0 1 2 3 3
3 3 3 3 4 5 4 2 1 0 0 0 0 0 0 0 0 0 0 0 0 0 0 0 0 0 0 0 0 0 0 0 0 0 0 0 0 0 0 0 1 1 2
1 2 3 3 4 5 5 4 2 1 0 0 0 0 0 0 0 0 0 0 0 0 0 0 0 0 0 0 0 0 0 0 0 0 0 0 0 0 0 0 0 1 2
0 1 2 3 3 4 4 3 2 1 0 0 0 0 0 0 0 0 0 0 0 0 0 0 0 0 0 0 0 0 0 0 0 0 0 0 0 0 0 0 0 0 1
0 0 1 1 2 3 3 2 1 1 0 0 0 0 0 0 0 0 0 0 0 0 0 0 0 0 0 0 0 0 0 0 0 0 0 0 0 0 0 0 0 0 0
0 0 0 0 1 1 1 1 0 0 0 0 0 0 0 0 0 0 0 0 0 1 1 1 0 0 0 0 0 0 0 0 0 0 0 0 0 0 0 0 0 0 0
0 0 0 0 0 0 0 0 0 0 0 0 0 0 0 0 0 0 0 0 0 1 2 2 1 0 0 0 0 0 0 0 0 0 0 0 0 0 0 0 0 0 0
0 0 0 0 0 0 0 0 0 0 0 0 0 0 0 0 0 0 0 0 0 0 1 2 2 1 0 0 0 0 0 0 0 0 0 0 0 0 0 0 0 0 0
0 0 0 0 0 0 0 0 0 0 0 0 0 0 0 0 0 0 0 0 0 0 0 1 2 2 1 0 0 0 0 0 0 0 0 0 0 0 0 0 0 0 0
Wind_Speed
1 2 4 5 7 9 9 9 9 9 10 10 11 11 11 11 11 11 11 11 12 12 13 13 12 12 12 12 13 13 13 13 12 12 12 12 12 13 13 12 11 7 13
3 3 4 5 7 9 9 9 9 9 9 10 10 11 10 11 11 11 11 11 11 12 13 13 12 12 12 12 12 13 12 12 12 12 11 9 10 11 12 12 11 8 13
3 3 4 5 7 8 9 9 9 9 9 9 9 10 10 10 10 10 10 10 11 12 12 12 12 12 12 12 12 12 12 12 11 11 9 5 5 10 11 11 11 12 12
3 3 3 5 6 8 8 9 9 9 9 9 9 9 9 9 9 9 9 9 10 11 12 12 12 12 12 12 11 11 11 11 11 10 5 4 4 8 10 10 10 11 11
3 3 3 5 6 7 8 9 9 8 8 8 9 9 9 9 8 9 9 9 10 10 11 11 11 11 11 11 11 11 11 11 11 8 5 4 3 8 10 10 10 10 10
3 3 3 5 6 6 7 9 9 9 9 9 9 8 8 8 8 9 9 9 10 10 10 11 11 10 10 10 10 11 10 10 8 5 5 4 3 8 9 10 10 10 10
4 3 3 5 5 6 7 8 8 9 9 9 8 8 8 8 8 8 8 8 9 9 10 10 10 10 10 10 10 10 10 9 6 5 4 4 4 8 8 8 9 9 10
4 3 3 4 5 5 6 8 8 8 8 8 8 8 8 8 7 7 8 8 8 9 9 9 9 9 9 10 10 10 10 8 6 5 4 3 5 8 8 8 8 9 9
4 4 3 2 3 4 5 7 7 7 7 7 8 8 7 7 7 7 7 7 8 8 9 9 9 9 9 9 10 9 9 9 5 3 4 3 6 7 8 8 8 8 8
3 3 3 2 2 2 2 5 6 6 7 7 7 7 7 6 6 6 6 6 7 8 8 8 8 8 9 9 9 9 9 7 5 4 2 3 6 7 7 8 7 7 7
2 2 2 2 2 2 2 3 5 5 6 6 5 6 6 3 3 4 5 6 6 7 7 7 8 8 8 8 9 9 7 3 4 3 2 4 6 6 6 7 6 6 6
1 0 1 1 2 2 2 2 2 2 3 3 3 3 3 3 3 4 6 6 6 7 7 7 8 7 6 4 5 6 3 4 3 3 3 5 5 5 5 5 6 6 5
2 1 1 1 2 2 2 1 1 1 2 2 3 3 3 3 3 3 2 3 4 5 4 5 5 3 3 3 3 3 3 3 2 2 3 5 5 4 4 4 5 5 5
1 1 1 1 2 2 2 1 1 1 1 2 2 2 2 2 2 2 2 2 2 2 3 2 2 3 3 3 3 3 3 2 2 2 3 6 5 4 3 3 4 4 4
1 1 1 1 2 2 2 1 1 1 1 2 2 1 2 2 2 2 1 2 2 2 2 2 2 3 3 3 3 3 3 3 2 2 3 6 6 5 3 3 3 3 3
1 1 1 1 2 2 2 2 1 1 1 2 1 2 2 2 2 2 2 2 1 1 1 2 3 2 2 2 2 2 2 2 2 2 2 4 6 6 4 3 3 3 3
2 1 0 1 1 2 2 2 2 1 2 1 1 1 2 2 2 2 2 2 1 1 2 2 3 2 2 2 2 2 1 1 1 2 2 2 3 5 6 4 4 3 3
1 1 1 1 1 1 1 2 2 2 2 1 1 1 2 2 2 2 2 1 1 2 2 2 2 2 2 2 1 1 0 1 1 1 1 2 2 2 4 6 5 4 3
1 1 1 1 1 1 1 1 2 2 2 1 1 1 1 2 2 2 1 1 2 2 2 2 2 2 2 1 1 0 0 0 0 1 1 1 1 1 1 4 5 6 5
0 1 1 1 1 1 1 2 2 2 2 2 1 1 1 1 2 2 2 1 2 2 2 2 2 2 1 1 1 1 1 1 0 0 1 1 1 1 1 2 2 4 6
1 1 1 2 1 2 1 1 1 1 1 2 2 2 2 2 2 2 2 2 1 1 2 2 2 2 1 1 1 1 1 0 0 0 0 0 1 1 1 1 1 1 2
0 0 1 1 1 2 1 1 1 2 1 1 1 2 2 2 2 1 2 1 1 1 1 2 2 2 1 1 1 1 1 2 1 1 1 1 1 1 0 1 1 1 1
1 1 1 1 2 1 1 2 2 2 2 1 1 1 1 2 2 2 1 1 1 1 2 2 2 2 2 1 0 2 2 2 1 1 1 1 1 1 1 1 1 1 2
2 1 1 1 1 1 2 3 3 2 1 1 0 0 1 1 1 1 1 1 1 1 1 1 2 1 2 2 0 0 1 1 1 2 1 1 1 1 2 2 2 2 2
1 1 1 1 2 2 2 2 2 1 1 1 1 1 1 1 1 1 1 1 0 0 1 1 1 1 1 2 2 1 0 0 1 1 2 2 2 2 2 2 2 2 2
1 1 1 2 1 1 2 2 2 2 2 2 1 1 0 1 1 1 1 0 0 0 0 0 1 1 1 1 1 1 1 1 1 2 2 2 3 2 2 2 2 3 3
Wind_Direction
187 178 157 136 128 124 117 112 109 105 104 101 99 99 101 99 96 93 90 89 89 88 87 85 83 83 84 83 81 80 79 77 77 77 76 75 80 82 81 79 76 71 76
158 161 147 135 128 125 120 116 113 108 105 103 101 100 100 99 97 94 92 91 91 90 88 87 84 82 84 84 84 82 80 76 74 72 69 69 73 80 82 80 79 77 77
127 136 143 134 128 125 122 119 116 113 109 106 104 102 101 99 97 96 96 93 94 92 89 88 85 85 84 84 84 82 80 77 74 68 60 51 62 78 81 80 78 76 76
115 117 130 126 130 129 128 123 118 115 111 109 108 104 101 99 99 100 99 97 96 94 92 90 88 86 85 84 83 81 80 78 73 66 55 47 52 75 80 80 79 76 75
98 100 119 118 124 127 130 125 120 116 114 112 108 106 102 99 99 101 102 101 97 95 94 93 90 87 86 85 81 79 80 77 69 60 50 44 49 73 76 79 80 79 77
94 88 104 116 122 122 127 128 123 119 114 112 108 104 104 103 102 103 101 103 101 98 95 94 92 89 88 85 82 79 77 73 64 54 47 40 46 75 75 77 80 80 77
102 79 89 102 114 119 122 125 126 125 120 114 110 105 102 103 101 100 99 103 103 101 98 94 93 91 89 86 82 79 73 69 66 56 47 40 53 72 74 74 80 81 79
107 88 82 91 93 108 122 119 119 122 121 118 115 110 104 99 97 96 95 101 103 102 100 97 93 89 90 88 82 76 70 64 65 58 48 45 58 69 72 73 74 77 78
90 88 78 79 86 97 114 113 112 110 115 115 114 109 102 96 92 88 84 94 104 104 102 100 94 89 90 87 83 77 68 61 58 53 49 47 59 68 69 70 72 75 79
77 80 81 73 75 80 100 107 105 103 103 107 109 105 100 93 85 86 79 84 97 100 100 101 96 92 89 84 79 74 66 56 50 46 37 48 57 65 66 66 68 73 77
64 68 86 85 78 79 82 97 102 100 99 97 98 101 95 83 81 81 78 80 92 94 97 99 98 92 85 78 74 69 61 51 44 38 27 44 58 62 63 65 66 70 73
178 155 110 106 106 101 93 87 85 90 94 85 80 84 83 86 85 85 84 80 81 84 87 90 89 84 79 68 64 62 57 49 41 28 24 34 51 58 59 64 68 68 70
204 196 162 155 136 120 111 102 90 94 91 83 84 87 88 82 79 73 75 67 67 70 67 72 74 69 71 68 65 61 58 53 38 18 16 30 40 50 53 68 70 69 64
206 209 197 167 152 139 127 119 119 124 108 102 92 97 102 97 87 83 83 79 78 83 86 77 84 84 78 69 70 65 53 49 33 20 12 21 25 31 40 62 66 62 55
252 243 222 180 161 150 135 128 126 136 125 117 105 98 104 111 113 104 97 90 87 95 105 102 99 97 88 75 68 71 60 46 31 26 7 13 16 15 20 45 55 54 46
272 258 225 189 178 155 150 148 152 139 126 122 120 118 115 117 121 120 112 104 98 106 122 119 113 107 99 90 75 64 61 45 34 23 13 2 5 8 10 24 44 44 42
255 273 234 210 172 160 162 154 144 142 132 134 136 126 120 123 133 133 128 125 125 118 116 108 100 95 93 85 80 63 52 42 40 21 12 6 353 359 7 16 25 31 31
247 241 204 141 127 151 148 146 140 132 126 128 128 121 120 123 126 130 131 141 133 119 114 115 113 103 101 94 85 68 40 29 32 10 9 14 4 3 356 6 6 9 15
225 197 176 137 127 149 123 112 115 113 105 100 90 90 109 115 116 123 130 136 127 122 116 120 110 121 129 116 112 82 6 290 276 343 356 13 4 24 6 0 1 359 354
8 135 142 118 96 92 92 80 81 75 72 69 63 48 81 96 101 110 110 108 120 122 120 124 125 104 127 126 91 24 327 276 248 231 307 349 352 32 29 17 356 346 348
46 89 120 108 101 99 112 144 145 125 64 53 49 48 62 72 88 102 100 99 98 136 153 147 132 119 96 100 84 2 338 229 199 203 284 285 333 343 16 18 352 353 333
247 167 129 140 141 145 152 176 161 150 129 104 51 49 58 66 69 99 105 119 118 120 113 132 126 134 109 102 122 109 331 327 311 226 226 224 245 283 304 324 330 342 326
249 226 176 167 158 144 105 96 83 76 68 59 36 33 43 74 76 69 97 126 140 143 167 177 162 153 164 181 128 156 172 232 297 291 245 240 229 247 262 279 297 310 306
241 238 149 138 128 126 126 123 121 127 148 204 203 54 45 80 90 81 92 99 151 171 180 195 174 175 162 177 195 279 220 174 188 287 281 255 259 263 266 284 278 270 270
204 185 153 121 107 112 123 131 139 122 133 79 63 73 60 49 58 54 71 106 128 142 178 185 182 179 183 177 176 179 189 14 204 206 264 282 293 261 251 257 256 253 254
119 120 117 120 114 113 123 122 134 133 116 104 79 101 57 34 34 31 33 74 134 167 172 205 203 193 199 180 182 183 174 178 195 204 242 274 280 280 269 249 245 250 246